Flag for U.S.A. Weather past 2 weeks in Oceanside, California, U.S.A.

Now
63 °F

Overcast.


Feels Like: 63 °F
Forecast: 59 / 75 °F
Wind: No wind

Location: Oceanside Weather Reporting Station

Current Time: May 29, 2015 at 10:47:09 PM

Latest Report: May 29, 2015 at 9:52 PM


Visibility: 9 mi

Pressure: 29.92 "Hg

Humidity: 81%

Dew point: 57 °F

Location of OceansideLocation

Historic Weather in Oceanside — Graph

°F

Oceanside temperature yesterday

Maximum temperature yesterday: 70 °F (at 2:52 PM)
Minimum temperature yesterday: 61 °F (at 6:52 AM)
Average temperature yesterday: 64 °F

Past Weeks' High & Low Weather Summary

 TemperatureHumidityPressure
High71 °F (May 29, 2:52 PM)93% (May 15, 12:52 AM)30.10 "Hg (May 15, 12:52 AM)
Low50 °F (May 16, 5:52 AM)49% (May 15, 2:52 PM)29.82 "Hg (May 15, 2:52 PM)
Average62 °F72%29.98 "Hg
* Reported May 14 8:52 PM — May 29 8:52 PM, Oceanside, Weather by CustomWeather, © 2015

Note: Actual official high and low records may vary slightly from our data, if they occured in-between our weather recording intervals... More about our weather records

Advertising

Oceanside weather history for previous 24 hours

 ConditionsComfort  
Time TempWeatherWind HumidityBarometerVisibility
8:52 PM
Fri, May 29
63 °FOvercast.No wind81%29.91 "Hg9 mi
7:52 PM63 °FOvercast.3 mph81%29.90 "Hg9 mi
6:52 PM64 °FSunny.5 mph75%29.89 "Hg10 mi
5:52 PM66 °FSunny.8 mph73%29.88 "Hg9 mi
4:52 PM68 °FSunny.8 mph68%29.89 "Hg9 mi
3:52 PM68 °FSunny.9 mph68%29.90 "Hg9 mi
2:52 PM71 °FScattered clouds.12 mph63%29.93 "Hg9 mi
1:52 PM70 °FSunny.14 mph66%29.93 "Hg8 mi
12:52 PM70 °FSunny.12 mph66%29.93 "Hg9 mi
11:52 AM70 °FSunny.10 mph66%29.93 "Hg8 mi
10:52 AM70 °FScattered clouds.7 mph66%29.94 "Hg8 mi
9:52 AM65 °FOvercast.No wind76%29.95 "Hg7 mi
9:04 AM64 °FOvercast.No wind78%29.96 "Hg7 mi
8:52 AM63 °FLow clouds.No wind81%29.96 "Hg7 mi
7:52 AM62 °FLow clouds.No wind83%29.95 "Hg7 mi
6:52 AM61 °FFog.No wind87%29.94 "Hg6 mi
5:52 AM61 °FLow clouds.6 mph87%29.93 "Hg8 mi
4:52 AM62 °FLow clouds.3 mph83%29.93 "Hg8 mi
3:52 AM62 °FLow clouds.No wind83%29.93 "Hg8 mi
2:52 AM62 °FLow clouds.No wind83%29.93 "Hg9 mi
1:52 AM62 °FLow clouds.7 mph83%29.94 "Hg9 mi
12:52 AM62 °FOvercast.3 mph83%29.95 "Hg9 mi
11:52 PM
Thu, May 28
63 °FOvercast.No wind81%29.95 "Hg9 mi
10:52 PM63 °FOvercast.5 mph78%29.96 "Hg10 mi
Weather by CustomWeather, © 2015

See weather overviewHow to use our weather pages